Regional Weather Roundup
Issued by NWS

Home | Current Version | Previous Version | Graphics & Text | Print | Product List | Glossary On
Versions: 1 2 3 4 5 6 7 8 9 10 11 12 13 14 15 16 17 18 19 20 21 22 23 24 25 26 27 28 29 30 31 32 33 34 35 36 37 38 39 40 41 42 43 44 45 46 47 48 49 50
000
ASUS45 KTFX 082010
RWRMT
MONTANA REGIONAL WEATHER ROUNDUP
NATIONAL WEATHER SERVICE GREAT FALLS MT
100 PM MST MON FEB 08 2016

NOTE: "FAIR" INDICATES FEW OR NO CLOUDS BELOW 12000 FEET WITH NO
SIGNIFICANT WEATHER AND/OR OBSTRUCTIONS TO VISIBILITY.

MTZ001>007-043-082100-
WEST OF THE DIVIDE

CITY           SKY/WX    TMP DP  RH WIND       PRES   REMARKS
KALISPELL      CLOUDY    37  27  67 CALM      30.58F
MISSOULA       CLOUDY    36  28  73 CALM      30.62F
BUTTE          CLOUDY    36  25  64 CALM      30.55F
MULLAN PASS    SUNNY     39  29  67 SW3       30.55F
ANACONDA         N/A     43  25  49 N8        30.55F
DEER LODGE       N/A     43  25  49 NE3       30.57F
HAMILTON         N/A     43  27  52 N3        30.58F
LIBBY            N/A     41  27  56 CALM      30.62F
PLAINS           N/A     44  28  53 CALM      30.56F
$$

MTZ008-052>055-082100-
SOUTHWEST MONTANA

CITY           SKY/WX    TMP DP  RH WIND       PRES   REMARKS
BOZEMAN        CLOUDY    35  27  72 CALM      30.52F
DILLON         CLOUDY    39  29  67 N6        30.54F
ENNIS          SUNNY     45  27  49 S14       30.59F
TWIN BRIDGES     N/A     35  24  64 E7        30.47F WCI  29
$$

MTZ009-010-012-014-046-048-049-054-082100-
EAST SLOPES AND CENTRAL MONTANA

CITY           SKY/WX    TMP DP  RH WIND       PRES   REMARKS
CUT BANK       MOSUNNY   58  28  32 W21       30.34F
GREAT FALLS    SUNNY     59  28  30 SW23G31   30.36F
MALMSTROM AFB  SUNNY     58  28  31 SW16G23   30.37F
HELENA         CLOUDY    42  30  62 E8        30.48F
CHOTEAU          N/A     59  30  33 W18G31    30.38S
CONRAD           N/A     59  30  33 W18       30.34S
$$

MTZ011-013-016-021-045-047-050-051-082100-
NORTH CENTRAL MONTANA

CITY           SKY/WX    TMP DP  RH WIND       PRES   REMARKS
HAVRE          SUNNY     51  29  42 SW18      30.32F
LEWISTOWN      CLOUDY    48  30  49 W12       30.36F
N BAR RANCH      N/A     52  27  37 NW25G32   30.35F
CHINOOK          N/A     52  27  37 W13       30.32F
$$

MTZ017>020-022>027-061-062-082100-
NORTHEAST MONTANA

CITY           SKY/WX    TMP DP  RH WIND       PRES   REMARKS
GLASGOW        CLOUDY    36  20  52 W6        30.31F WCI  31
JORDAN           N/A     44  24  45 W8        30.31F
SIDNEY         CLOUDY    36  14  41 NW13      30.33F WCI  27
WOLF POINT     CLOUDY    37  20  50 W10       30.34F WCI  30
PLENTYWOOD       N/A     32  18  55 NW13      30.31S WCI  22
POPLAR           N/A     34  19  55 SW8       30.34F WCI  27
SCOBEY           N/A     34  13  42 W3        30.27F
$$

MTZ028>42-056>058-082100-
SOUTHCENTRAL AND SOUTHEAST MONTANA

CITY           SKY/WX    TMP DP  RH WIND       PRES   REMARKS
BAKER          CLOUDY    37  10  32 NW13      30.31F WCI  29
BILLINGS       MOSUNNY   58  23  26 NW26G36   30.36F
LIVINGSTON     CLOUDY    55  28  35 W23G32    30.45F
MILES CITY     MOSUNNY   45  16  31 NW13G20   30.32F
EKALAKA          N/A     37   6  27 W14       30.24F WCI  28
FORSYTH          N/A     45  19  36 W8        30.33F
LAUREL           N/A     59  25  27 NW14      30.32F
ROUNDUP          N/A     58  21  24 W16       30.22F
$$

REGIONAL REPORTS...DAKOTAS

CITY           SKY/WX    TMP DP  RH WIND       PRES   REMARKS
WILLISTON      CLOUDY    34  17  50 NW14      30.31F WCI  25
MINOT          CLOUDY    33  11  39 NW17G30   30.25F WCI  22
DICKINSON      CLOUDY    34  12  40 NW20      30.25F WCI  23
BEACH          CLOUDY    34  12  40 NW16      30.32F WCI  23
CROSBY         PTSUNNY   30  19  64 N12       30.33F WCI  21
TIOGA          CLOUDY    28  23  80 NW12G18   30.33F WCI  18
WATFORD CITY     N/A     34  16  47 NW17G23   30.30S WCI  23
BISMARCK       MOSUNNY   36  17  46 NW18G32   30.24F WCI  26
GRAND FORKS    SNOW      13   7  77 N29G43    30.21S VSB 1/2 WCI  -8
FARGO          LGT SNOW  16  10  77 N25       30.18S VSB 3/4 WCI  -3
BUFFALO SD       N/A     38   8  29 NW22G33   30.22F WCI  27
RAPID CITY     CLOUDY    40   8  26 N30G38    30.28F
$$

REGIONAL REPORTS...WYOMING/IDAHO/WASHINGTON

CITY           SKY/WX    TMP DP  RH WIND       PRES   REMARKS
GILLETTE       CLOUDY    41  24  51 NW21      30.32F
SHERIDAN       SUNNY     50  29  44 NW22      30.34F
BUFFALO WY     SUNNY     47  29  49 N12       30.33F
CODY           CLOUDY    52  25  35 NE7       30.38F
YELLOWSTONE LA   N/A     26  16  65 E5        30.58F
IDAHO FALLS    CLOUDY    27  25  92 NW5       30.69F HAZE
SALMON         CLOUDY    30  19  64 CALM      30.69F
BOISE          SUNNY     42  34  73 S10       30.70F
SPOKANE        PTSUNNY   41  30  65 NE7       30.59F
$$

REGIONAL REPORTS...ALBERTA

CITY           SKY/WX    TMP DP  RH WIND       PRES   REMARKS
CALGARY        PTSUNNY   57  23  26 W17G24    30.25F
LETHBRIDGE     PTSUNNY   55  30  38 W24G38    30.30F
MEDICINE HAT   PTSUNNY   54  28  37 SW15      30.27F
WATERTON GATE    N/A     50  28  43 S33G47      N/A
MILK RIVER       N/A     57  30  35 NW26G32     N/A
ONEFOUR          N/A     50  30  46 NW21G26     N/A
$$

REGIONAL REPORTS...SASKATCHEWAN

CITY           SKY/WX    TMP DP  RH WIND       PRES   REMARKS
SWIFT CURRENT  CLOUDY    37  14  38 VRB2      30.24F
REGINA         CLOUDY    27  19  74 NW7       30.31F WCI  19
SASKATOON      PTSUNNY   28  19  69 S7        30.28F WCI  21
ASSINIBOIA       N/A     37  28  70 NW2         N/A
$$



USA.gov is the U.S. government's official web portal to all federal, state and local government web resources and services.